Wind_Speed
42 42 45 45 44 44 45 44 44 47 49 46 45 44 48 46 45 46 45 45 45 45 48 46 47 50 50 50 49 51 54 55 54 55 56 60 64 65 66 66 66 67 66 67
47 46 50 49 50 49 48 47 49 48 48 48 52 51 52 52 51 49 51 54 55 56 57 56 54 52 52 52 55 57 56 57 56 56 59 60 64 68 72 73 73 74 74 75
47 47 49 51 50 48 48 47 48 43 50 51 47 47 52 55 58 58 59 61 63 65 64 64 61 60 59 60 61 65 67 65 64 66 68 71 70 72 75 75 75 76 82 83
44 50 49 48 46 46 45 43 46 50 50 51 54 54 55 58 59 65 67 68 69 69 73 73 69 68 67 70 71 72 74 76 76 76 75 76 76 80 81 82 83 83 84 86
44 46 48 48 51 47 47 53 54 56 56 52 49 55 54 57 61 64 65 67 70 70 71 74 77 76 77 79 80 81 81 81 85 89 88 87 86 84 86 87 88 92 91 92
51 50 53 52 50 54 59 52 54 51 48 46 50 51 48 51 55 63 67 71 72 77 79 80 82 84 87 83 85 84 89 87 84 85 87 88 91 93 92 94 97 100 100 98
57 60 62 57 54 58 61 62 60 58 62 60 58 58 58 62 62 66 68 75 77 81 82 85 84 90 89 88 93 100 93 93 97 100 97 97 98 94 96 102 102 106 107 108
60 62 66 67 67 65 57 64 70 74 79 70 64 64 65 70 76 78 76 74 75 79 81 86 94 93 90 97 103 98 99 101 105 105 105 104 104 103 104 105 106 108 113 116
64 64 70 74 76 75 74 80 83 87 82 71 70 65 71 78 84 88 86 82 83 86 91 93 92 95 103 106 102 103 102 107 112 110 109 109 109 108 107 109 112 111 113 117
71 74 73 75 73 78 84 84 85 87 82 79 75 73 77 84 95 100 98 94 98 101 102 105 113 116 113 109 105 104 107 108 109 109 109 110 112 114 114 115 117 118 118 121
88 90 83 71 70 74 81 84 89 92 88 93 89 78 87 95 101 103 101 105 109 113 116 123 128 124 123 120 115 114 114 115 116 115 114 115 115 116 118 120 123 124 126 127
89 86 89 90 90 88 83 86 90 92 87 92 99 84 103 110 112 114 115 115 120 122 126 130 133 132 130 125 121 121 122 124 122 122 121 121 118 116 115 115 115 117 119 120
96 98 93 94 94 99 100 97 100 100 99 100 110 105 112 114 118 122 126 130 130 134 132 133 134 132 134 133 130 130 127 123 120 117 116 114 112 109 107 108 109 109 109 111
94 94 92 95 105 96 99 100 101 105 104 109 110 118 123 127 132 132 133 137 138 139 138 134 136 135 135 132 128 126 120 114 110 107 104 102 101 98 99 99 99 101 101 102
106 98 99 101 95 107 107 101 103 106 107 117 121 125 130 137 139 139 139 142 144 141 136 137 141 141 135 127 120 111 106 102 98 96 94 93 92 92 91 92 94 95 96 97
104 108 107 107 107 109 111 108 110 112 116 123 128 130 139 143 147 146 148 150 145 140 139 140 143 136 127 118 110 106 103 98 95 93 91 91 91 90 89 89 90 90 91 93
112 113 115 116 117 120 116 111 119 123 123 130 138 141 144 146 148 152 151 145 146 144 144 143 136 123 114 108 105 101 100 98 96 94 94 94 93 93 92 92 92 91 90 90
119 119 122 122 124 127 120 123 124 128 130 138 145 148 153 154 147 148 150 150 146 144 140 127 117 112 108 104 101 100 99 97 96 95 95 93 93 93 93 92 91 90 89 89
122 126 129 131 132 127 126 131 131 136 138 143 152 158 159 154 151 151 152 147 141 133 125 118 112 108 104 104 102 101 100 98 97 95 94 94 92 91 91 90 89 88 88 89
130 132 133 134 137 139 133 138 145 147 148 154 158 159 158 162 158 152 147 135 129 121 115 113 109 105 104 104 103 102 101 98 96 94 93 92 91 90 89 88 87 85 84 84
136 138 140 142 144 143 139 147 148 155 158 159 163 167 164 155 156 136 133 126 118 114 112 110 110 109 106 104 102 100 98 96 94 93 93 91 90 88 86 86 85 84 83 83
142 146 146 151 152 148 151 156 160 162 163 165 161 160 157 157 141 130 120 117 117 116 112 111 110 107 105 102 100 98 96 95 94 92 90 88 86 85 84 83 82 81 80 82
148 153 156 156 159 159 164 166 166 165 168 165 162 159 156 136 124 119 118 116 115 115 111 108 106 103 100 99 97 95 92 90 89 88 86 85 84 83 83 82 79 76 75 74
157 157 157 161 163 167 170 173 173 171 164 164 152 137 132 122 118 117 116 114 112 109 104 102 100 98 95 93 91 89 87 86 85 84 83 83 82 81 78 76 74 74 73 72
160 161 164 164 166 175 176 175 170 165 160 148 139 129 122 120 115 114 109 106 105 102 100 98 95 94 91 89 86 85 84 82 81 81 80 79 77 75 76 76 76 74 71 70
161 161 164 170 172 173 166 164 165 156 145 129 127 123 119 118 115 110 105 103 102 99 96 92 91 89 88 86 86 84 82 81 79 78 77 75 76 74 74 74 76 76 70 71
Wind_Direction
266 270 270 273 273 274 277 276 277 275 278 278 276 276 275 274 270 271 274 275 276 270 273 273 272 272 273 275 275 276 273 271 275 278 279 273 269 268 269 270 272 273 272 272
268 272 275 277 276 276 276 277 276 278 275 273 271 270 272 271 265 265 267 267 269 271 271 271 274 270 268 271 274 271 273 272 270 272 274 274 273 270 268 267 268 268 268 268
280 276 277 279 279 278 278 277 278 273 270 270 269 271 272 271 266 266 269 272 272 267 267 267 269 271 272 273 272 271 271 267 265 271 272 274 270 270 270 269 271 271 266 265
279 275 278 278 276 275 277 277 273 275 275 276 276 267 273 276 276 270 270 272 275 274 271 267 268 269 271 271 272 274 274 270 267 269 270 273 270 270 268 266 268 268 267 267
275 276 275 280 274 273 276 278 281 280 275 280 284 275 271 280 281 286 286 283 281 278 277 275 272 271 268 271 274 275 273 272 272 271 270 270 270 268 267 266 263 265 266 263
276 279 276 277 274 280 279 275 282 276 278 276 283 285 286 284 281 283 279 279 279 276 275 273 272 273 270 272 275 276 273 270 274 271 270 270 268 267 266 267 266 266 265 263
279 280 280 279 280 279 274 278 283 287 285 285 288 297 299 295 290 289 290 275 273 274 277 276 276 274 274 272 274 270 275 273 271 271 269 272 270 268 268 269 266 264 264 265
277 277 277 274 275 279 277 280 285 289 293 287 290 294 299 298 302 305 299 298 288 283 281 277 272 273 278 274 273 275 275 276 274 274 274 276 273 270 269 268 268 266 264 263
273 278 282 276 272 271 275 277 281 288 285 291 291 301 303 304 304 304 306 301 299 298 307 308 300 298 288 283 281 277 277 276 274 276 275 272 270 270 269 269 269 267 266 265
271 273 284 277 279 274 271 276 283 288 289 299 303 305 309 308 306 307 305 304 307 310 311 309 308 306 304 299 292 287 284 282 280 279 279 277 274 272 269 268 268 268 267 267
274 274 278 281 280 277 279 280 286 294 295 298 304 311 309 307 305 308 308 309 310 310 310 308 307 307 305 300 297 294 292 291 290 288 285 282 279 277 273 270 268 267 267 267
277 279 277 276 278 286 292 295 298 301 303 302 307 312 309 306 306 308 309 310 310 310 307 304 306 304 302 300 297 297 295 293 290 288 286 284 282 280 279 277 273 270 269 267
279 274 280 275 282 282 287 293 297 301 304 308 306 313 306 306 307 309 310 308 307 305 306 305 302 301 300 300 298 295 292 289 288 286 285 284 283 282 279 278 276 274 271 270
281 274 282 274 279 291 290 291 294 299 303 297 305 304 309 309 307 305 305 306 306 305 302 302 302 303 301 297 295 295 295 294 291 288 286 285 283 281 279 278 277 275 274 272
280 287 286 286 288 286 293 296 299 303 299 301 303 305 307 304 303 304 304 306 306 304 303 303 304 301 298 297 296 295 294 293 292 289 287 286 284 281 279 278 276 274 273 272
282 286 290 292 291 291 295 302 304 301 299 302 300 303 301 301 301 304 305 302 304 304 303 302 300 300 298 295 294 295 295 294 293 292 289 287 285 283 281 278 276 274 273 272
288 288 291 293 294 296 302 302 298 298 295 294 300 301 302 304 302 303 304 303 303 303 301 300 299 298 296 295 295 295 295 294 293 293 291 289 287 286 284 282 281 279 277 275
292 290 290 291 292 294 299 299 294 293 295 296 296 301 301 304 306 305 303 302 303 300 300 299 297 297 296 295 295 294 293 293 292 291 290 289 288 286 285 283 282 281 280 278
291 288 287 287 292 292 296 294 293 290 290 298 297 298 301 303 304 303 300 301 300 300 297 296 295 295 296 295 294 294 294 293 292 291 290 288 287 286 284 283 282 281 280 278
284 285 285 287 287 289 293 291 291 292 293 296 294 299 300 301 300 301 299 300 298 297 295 295 296 296 295 294 294 294 293 292 291 291 290 289 287 286 285 284 283 282 281 280
282 285 284 286 287 290 290 292 291 292 293 295 297 296 297 299 301 299 298 297 297 296 295 296 295 295 295 294 294 294 293 293 292 290 289 288 287 286 285 284 283 282 281 281
279 281 284 285 287 291 288 290 290 291 295 298 297 297 297 298 298 297 297 297 296 296 297 296 295 295 294 293 292 292 292 292 292 291 291 290 288 287 286 285 284 283 282 281
280 282 284 286 289 289 288 289 290 291 294 296 297 297 297 298 297 296 295 295 295 295 294 294 293 292 292 291 292 292 292 292 291 291 291 290 289 288 287 287 287 286 284 284
277 279 282 284 285 287 288 289 292 291 294 296 298 297 296 295 294 294 295 294 293 293 294 293 293 292 292 291 291 291 292 292 292 291 290 290 289 289 288 288 289 288 288 288
277 280 282 283 284 285 287 288 290 291 294 295 294 294 293 293 293 292 292 293 293 294 294 293 292 292 292 292 292 293 293 293 292 291 290 290 290 290 291 292 291 290 289 288
278 280 281 283 284 285 287 287 289 291 292 293 294 293 293 293 293 294 295 294 293 294 293 293 292 293 293 293 293 293 293 292 292 292 292 292 292 292 291 291 290 290 289 288
Height
10742 10743 10739 10741 10742 10743 10743 10742 10741 10736 10736 10739 10735 10734 10728 10727 10725 10723 10720 10718 10717 10715 10713 10712 10712 10712 10712 10710 10708 10705 10703 10700 10698 10695 10694 10694 10691 10688 10687 10686 10684 10683 10682 10680
10734 10737 10731 10732 10733 10734 10733 10732 10729 10730 10726 10728 10727 10724 10719 10717 10715 10714 10711 10708 10705 10703 10701 10700 10699 10698 10697 10696 10694 10691 10689 10686 10682 10681 10679 10677 10676 10675 10673 10671 10669 10667 10665 10664
10727 10726 10721 10721 10721 10721 10722 10720 10720 10720 10717 10717 10718 10717 10709 10706 10704 10701 10697 10694 10693 10690 10688 10686 10684 10682 10681 10678 10675 10673 10671 10669 10665 10664 10662 10660 10658 10655 10655 10655 10651 10648 10648 10646
10717 10712 10712 10711 10709 10710 10710 10708 10709 10709 10709 10707 10706 10709 10701 10693 10692 10688 10684 10679 10677 10674 10673 10671 10667 10664 10661 10657 10654 10651 10650 10646 10642 10639 10638 10637 10636 10634 10631 10629 10630 10627 10625 10624
10703 10701 10700 10700 10698 10699 10697 10697 10696 10696 10696 10697 10690 10691 10694 10685 10679 10673 10669 10664 10661 10657 10656 10653 10649 10646 10642 10639 10635 10631 10627 10624 10621 10618 10615 10611 10609 10608 10606 10604 10603 10602 10601 10599
10689 10690 10687 10687 10685 10684 10685 10682 10682 10682 10680 10684 10675 10673 10680 10669 10664 10656 10650 10646 10639 10637 10634 10632 10628 10624 10621 10616 10612 10609 10606 10603 10597 10593 10589 10586 10584 10581 10577 10575 10574 10573 10572 10571
10676 10676 10674 10673 10671 10670 10669 10667 10665 10666 10662 10665 10664 10661 10660 10649 10642 10635 10629 10622 10619 10613 10611 10610 10605 10601 10597 10590 10585 10582 10577 10573 10571 10566 10561 10557 10553 10550 10548 10544 10542 10541 10539 10538
10660 10659 10658 10657 10656 10655 10653 10650 10644 10644 10646 10646 10645 10649 10645 10632 10622 10612 10606 10599 10596 10592 10587 10583 10580 10575 10569 10563 10556 10551 10547 10542 10539 10535 10529 10524 10519 10516 10512 10509 10506 10504 10502 10501
10643 10645 10642 10640 10639 10637 10637 10633 10624 10622 10624 10623 10626 10629 10622 10611 10598 10589 10578 10573 10569 10563 10555 10551 10548 10545 10540 10533 10527 10521 10514 10509 10503 10497 10494 10490 10486 10481 10476 10471 10467 10465 10464 10461
10627 10627 10626 10624 10621 10619 10615 10616 10609 10601 10598 10596 10603 10603 10596 10588 10571 10559 10554 10549 10543 10536 10529 10524 10518 10511 10504 10497 10490 10484 10478 10471 10465 10459 10454 10449 10445 10442 10437 10433 10428 10424 10421 10420
10606 10607 10612 10609 10607 10601 10598 10597 10590 10578 10575 10565 10571 10584 10573 10560 10546 10537 10529 10522 10517 10510 10503 10494 10486 10478 10468 10459 10451 10444 10437 10430 10424 10419 10414 10409 10403 10398 10393 10389 10385 10380 10378 10375
10582 10585 10593 10592 10589 10583 10577 10573 10563 10556 10552 10544 10537 10561 10537 10525 10515 10507 10500 10497 10491 10484 10476 10467 10457 10445 10433 10425 10416 10407 10399 10392 10385 10378 10371 10365 10358 10352 10347 10342 10339 10336 10332 10329
10561 10563 10567 10572 10565 10559 10553 10550 10541 10533 10526 10523 10507 10523 10510 10500 10486 10475 10468 10465 10463 10457 10445 10435 10425 10413 10401 10391 10380 10369 10360 10353 10346 10340 10331 10324 10316 10309 10303 10299 10296 10294 10293 10289
10540 10542 10543 10543 10536 10531 10530 10529 10522 10512 10501 10493 10497 10483 10479 10464 10452 10451 10449 10441 10432 10422 10412 10401 10390 10378 10364 10352 10339 10328 10319 10313 10307 10300 10294 10287 10280 10274 10269 10265 10261 10256 10253 10252
10518 10516 10514 10511 10509 10502 10502 10506 10499 10487 10477 10459 10463 10456 10456 10434 10428 10423 10419 10407 10398 10385 10373 10362 10349 10338 10326 10315 10305 10295 10287 10281 10274 10267 10261 10254 10249 10243 10238 10233 10228 10223 10219 10217
10494 10489 10482 10479 10476 10473 10474 10480 10466 10458 10447 10436 10427 10436 10424 10415 10401 10393 10386 10375 10364 10351 10339 10327 10313 10299 10287 10277 10268 10261 10253 10247 10240 10233 10227 10221 10215 10209 10205 10201 10197 10194 10190 10187
10467 10459 10452 10442 10442 10435 10441 10460 10438 10425 10422 10409 10403 10407 10396 10386 10378 10369 10354 10341 10328 10319 10307 10292 10277 10264 10255 10248 10240 10232 10224 10216 10209 10202 10195 10188 10181 10176 10171 10166 10163 10160 10157 10154
10435 10429 10418 10410 10411 10408 10431 10427 10415 10401 10396 10385 10371 10366 10357 10351 10345 10334 10316 10303 10298 10283 10271 10258 10247 10237 10229 10221 10213 10206 10198 10191 10182 10174 10165 10158 10152 10146 10141 10136 10131 10127 10126 10122
10407 10401 10393 10382 10384 10386 10410 10393 10387 10373 10374 10366 10344 10329 10324 10321 10313 10310 10281 10279 10262 10249 10237 10228 10219 10213 10205 10195 10186 10177 10169 10161 10153 10146 10138 10131 10125 10119 10113 10107 10101 10098 10096 10091
10382 10376 10368 10364 10357 10360 10379 10367 10348 10332 10334 10338 10315 10305 10295 10288 10284 10279 10251 10244 10229 10218 10206 10196 10192 10186 10176 10166 10157 10149 10141 10133 10125 10117 10109 10102 10096 10090 10084 10077 10071 10068 10065 10062
10354 10344 10337 10333 10323 10335 10343 10321 10315 10305 10303 10298 10287 10277 10266 10259 10252 10239 10225 10208 10196 10187 10177 10170 10161 10152 10144 10136 10127 10119 10111 10103 10095 10086 10079 10074 10068 10062 10056 10050 10046 10042 10039 10035
10327 10315 10316 10303 10299 10303 10302 10282 10275 10269 10264 10261 10251 10243 10235 10229 10221 10207 10194 10179 10163 10154 10148 10139 10129 10122 10114 10106 10098 10091 10083 10074 10065 10058 10052 10046 10040 10033 10027 10022 10018 10013 10012 10007
10288 10287 10282 10278 10273 10265 10251 10247 10242 10237 10228 10223 10219 10209 10199 10194 10185 10173 10162 10152 10138 10126 10120 10113 10103 10096 10088 10077 10069 10062 10055 10048 10039 10032 10024 10019 10012 10004 9998 9993 9989 9985 9982 9981
10272 10267 10262 10254 10248 10230 10212 10203 10203 10198 10199 10194 10185 10174 10164 10158 10151 10141 10130 10121 10111 10099 10093 10085 10076 10067 10058 10052 10045 10037 10030 10023 10016 10008 10000 9992 9985 9978 9972 9967 9964 9960 9956 9954
10243 10242 10236 10223 10213 10188 10181 10175 10173 10170 10167 10162 10153 10141 10133 10123 10119 10109 10102 10092 10079 10072 10066 10057 10048 10037 10030 10024 10018 10011 10005 9998 9991 9982 9975 9968 9961 9956 9949 9942 9937 9935 9932 9930
10212 10213 10200 10186 10168 10147 10149 10147 10146 10144 10140 10126 10112 10107 10096 10083 10078 10075 10069 10060 10051 10044 10035 10028 10018 10011 10005 9998 9991 9986 9981 9972 9964 9955 9948 9942 9936 9932 9927 9922 9912 9908 9911 9905